CZ-2D DEB, 43403

Orbit data source: Space-Track

CZ-2D DEB, 43403 is space debris in SSO originally from a launch on Sat, 29 Sep 2012 UTC launched from the Jiuquan Satellite Launch Center, China (JSC). Debris objects in space refer to the collection of defunct objects orbiting the Earth. Examples of debris include non-operational satellites, rocket bodies, and fragments generated from explosions, collisions, or faulty payload assembly.

Loading next visibility...
Identifier
43403, 2012-052C
Orbit
SSO
Country
Flag of CNCN / PRC
Related business
Manufacturer
SAST
Mission
Spacecraft
Bus & Motor
Unknown
Mass
Unknown
Launch date (UTC)
2012-09-29 (13 years ago)
Launch vehicle
Unknown
Launch site
Jiuquan Satellite Launch Center, China (JSC)
Object type
Payload
Rocket body
Debris
Shape & HBR
Unknown shape, 0.1 m
Radar Cross Section
Small (<0.1 m²)

Expand to show TLE details & history
Last TLE update: 1 day ago

TLE from 1 day ago
0 CZ-2D DEB
1 43403U 12052C   25292.00705123  .00003785  00000-0  95786-3 0  9993
2 43403  98.0257  32.3285 0192183 312.0691  46.4287 14.40971746621548
Epoch: 2025-10-19T00:10Z
TLE epoch observation values (Epoch: 2025-10-19T00:10:09.226Z)
Latitude
0.00001°
Longitude
2.06015°
Altitude
665.156 km
Speed
7.573 km/s
True Right ascension
02h 09m 18s
True Declination
0° 00' 00"
Sunlit
Object was in full shadow at epoch
Visualization orbit readout
Latitude
Unknown
Longitude
Unknown
Altitude
Unknown
Speed
Unknown
Apparent Right ascension
Unknown
Apparent Declination
Unknown
Sunlit
N/A
Visualization observer readout
Local Sidereal Time
23:59:37
Azimuth
Unknown
Elevation
Unknown
Doppler factor
Unknown
Orbital elements
Apogee altitude
889.423 km
Perigee altitude
615.35 km
Semi-major axis
7,130.524 km
Eccentricity
0.01922
Inclination
98.0257°
RAAN
32.3285°
Arg. of periapsis
312.0691°
True anomaly
48.0509°
Mean anomaly
46.4287°
Eccentric anomaly
47.23711°
Mean motion
3.60463 °/min
Orbital period
99.87 mins
BSTAR
0.00095786
Loading maneuver chart data...
Computing Atmospheric mass density...
Loading historical data...
Loading historical data...
Loading historical data...
Loading historical data...
Loading historical data...
Loading historical data...
Loading historical data...
Other satellites on launch #52 in the year 2012 (2012-09-29 UTC)

Documentation

Showing up to 5 results
|